Flag for Germany Weather past 2 weeks in Freising, Bavaria, Germany

Now
44 °F

Overcast.


Feels Like: 38 °F
Forecast: 35 / 42 °F
Wind: 10 mph from West

Location: Muenchen Flughafen

Current Time: Dec 20, 2014 at 2:25:29 PM

Latest Report: Dec 20, 2014 at 2:00 PM


Visibility: 38 mi

Pressure: 30.23 "Hg

Humidity: 64%

Dew point: 33 °F

Location of FreisingLocation

Historic Weather in Freising — Graph

°F

Freising temperature yesterday

Maximum temperature yesterday: 56 °F (at 2:00 PM)
Minimum temperature yesterday: 47 °F (at 9:00 AM)
Average temperature yesterday: 51 °F

Past Weeks' High & Low Weather Summary

 TemperatureHumidityPressure
High56 °F (Dec 19, 2:00 PM)100% (Dec 7, 4:00 AM)30.52 "Hg (Dec 7, 4:00 AM)
Low25 °F (Dec 9, 9:00 PM)50% (Dec 14, 1:00 PM)29.82 "Hg (Dec 12, 9:00 PM)
Average41 °F84%30.10 "Hg
* Reported Dec 5 1:00 PM — Dec 20 1:00 PM, Freising, Weather by CustomWeather, © 2014

Note: Actual official high and low records may vary slightly from our data, if they occured in-between our weather recording intervals... More about our weather records

Advertising

Freising weather history for previous 24 hours

 ConditionsComfort  
Time TempWeatherWind HumidityBarometerVisibility
1:00 PM
Dec 20
43 °FOvercast.10 mph69%30.24 "Hg37 mi
12:00 PM44 °FOvercast.9 mph73%30.25 "Hg25 mi
11:00 AM43 °FOvercast.5 mph79%30.28 "Hg25 mi
10:00 AM39 °FScattered clouds.5 mph85%30.29 "Hg25 mi
9:00 AM37 °FPassing clouds.3 mph90%30.31 "Hg25 mi
8:00 AM39 °FChilly.3 mph86%30.31 "Hg28 mi
7:00 AM41 °FPassing clouds.3 mph85%30.30 "Hg25 mi
6:00 AM42 °FPassing clouds.2 mph87%30.28 "Hg25 mi
5:00 AM43 °FPassing clouds.5 mph82%30.26 "Hg25 mi
4:00 AM41 °FPassing clouds.3 mph96%30.24 "Hg19 mi
3:00 AM42 °FPassing clouds.3 mph93%30.23 "Hg25 mi
2:00 AM46 °FLight rain. Overcast.7 mph90%30.19 "Hg25 mi
1:00 AM46 °FPassing clouds.7 mph86%30.16 "Hg25 mi
12:00 AM48 °FRain. Overcast.7 mph90%30.14 "Hg5 mi
11:00 PM
Dec 19
49 °FRain. Overcast.8 mph92%30.11 "Hg5 mi
10:00 PM49 °FRain. Overcast.15 mph94%30.09 "Hg4 mi
9:00 PM50 °FLight rain. Overcast.12 mph87%30.07 "Hg12 mi
8:00 PM50 °FLight rain. Overcast.10 mph83%30.07 "Hg12 mi
7:00 PM52 °FOvercast.12 mph71%30.04 "Hg37 mi
6:00 PM53 °FOvercast.10 mph67%30.03 "Hg47 mi
5:00 PM53 °FOvercast.10 mph65%30.02 "Hg47 mi
4:00 PM54 °FOvercast.12 mph62%30.03 "Hg47 mi
3:00 PM55 °FPartly sunny.13 mph61%30.03 "Hg47 mi
2:00 PM56 °FPartly sunny.12 mph61%30.03 "Hg47 mi
Weather by CustomWeather, © 2014

See weather overviewHow to use our weather pages